Weather History for Chillicothe, MO

Change the Weather History Date:

Thursday, January 17, 2013

  Actual Average (KIRK) Record (KIRK)
Temperature  
Mean Temperature 34 °F 26 °F  
Max Temperature 43 °F 35 °F 61 °F (1952)
Min Temperature 24 °F 17 °F -14 °F (1977)
Degree Days  
Heating Degree Days 30 39  
Month to date heating degree days 663  
Since 1 July heating degree days 3006  
Cooling Degree Days 0 0  
Month to date cooling degree days 0  
Year to date cooling degree days 0  
Moisture  
Dew Point 23 °F    
Average Humidity 72    
Maximum Humidity 88    
Minimum Humidity 41    
Precipitation  
Precipitation 0.00 in 0.05 in 0.47 in (1941)
Month to date precipitation 0.56  
Year to date precipitation 0.56  
Sea Level Pressure  
Sea Level Pressure 30.44 in    
Wind  
Wind Speed 5 mph (NNW)    
Max Wind Speed 8 mph    
Max Gust Speed -    
T = Trace of Precipitation, MM = Missing Value Source: NWS Daily Summary

Daily Weather History Graph

Daily Weather History Graph

Search for Another Location

Airport:

Trip Planner

Search our weather history database for the weather conditions in past years. The results will help you decide how hot, cold, wet, or windy it might be!

Date:

Astronomy

Jan. 17, 2013 Rise Set
Actual Time 7:32 AM CST 5:16 PM CST
Civil Twilight 7:03 AM CST 5:46 PM CST
Nautical Twilight 6:30 AM CST 6:19 PM CST
Astronomical Twilight 5:57 AM CST 6:51 PM CST
Moon 10:40 AM CST No Moon Set
Length of Visible Light 10h 42m
Length of Day
9h 43m
Waxing Crescent, 38% of the Moon is Illuminated
Jan 17
Waxing Crescent
Jan 18
First Quarter
Jan 26
Full
Feb 3
Last Quarter
Feb 10
New

Hourly Weather History & Observations

Time (CST) Temp. Windchill Dew Point Humidity Pressure Visibility Wind Dir Wind Speed Gust Speed Precip Events Conditions
12:52 AM 36.0 °F 30.3 °F 30.9 °F 82% 30.23 in - NNW 6.9 mph - N/A   Unknown
1:52 AM 34.0 °F 28.0 °F 30.0 °F 85% 30.27 in - NNW 6.9 mph - N/A   Unknown
2:52 AM 34.0 °F 28.0 °F 30.0 °F 85% 30.29 in - North 6.9 mph - N/A   Unknown
3:52 AM 32.0 °F 25.6 °F 28.9 °F 88% 30.32 in - North 6.9 mph - N/A   Unknown
4:52 AM 30.0 °F 24.1 °F 27.0 °F 88% 30.35 in - NNW 5.8 mph - N/A   Unknown
5:52 AM 28.0 °F 21.7 °F 25.0 °F 88% 30.39 in - NNW 5.8 mph - N/A   Unknown
6:52 AM 28.0 °F 21.7 °F 24.1 °F 85% 30.43 in - NNW 5.8 mph - N/A   Unknown
7:52 AM 28.0 °F 24.2 °F 25.0 °F 88% 30.47 in - NNW 3.5 mph - N/A   Unknown
8:52 AM 28.0 °F 20.0 °F 25.0 °F 88% 30.49 in - North 8.1 mph - N/A   Unknown
9:52 AM 30.9 °F 25.2 °F 25.0 °F 79% 30.52 in - North 5.8 mph - N/A   Unknown
10:52 AM 34.0 °F 31.0 °F 24.1 °F 67% 30.51 in - Variable 3.5 mph - N/A   Unknown
11:52 AM 36.0 °F - 21.9 °F 57% 30.49 in - Calm Calm - N/A   Unknown
12:52 PM 39.0 °F 34.0 °F 19.9 °F 46% 30.48 in - West 6.9 mph - N/A   Unknown
1:52 PM 41.0 °F 39.0 °F 19.9 °F 43% 30.46 in - Variable 3.5 mph - N/A   Unknown
2:52 PM 42.1 °F - 19.9 °F 41% 30.46 in - Calm Calm - N/A   Unknown
3:52 PM 43.0 °F 41.3 °F 21.0 °F 42% 30.46 in - Variable 3.5 mph - N/A   Unknown
4:52 PM 39.9 °F 37.8 °F 21.0 °F 47% 30.48 in - SW 3.5 mph - N/A   Unknown
5:52 PM 32.0 °F - 21.0 °F 64% 30.49 in - Calm Calm - N/A   Unknown
6:52 PM 28.0 °F - 21.0 °F 75% 30.50 in - Calm Calm - N/A   Unknown
7:52 PM 27.0 °F - 21.0 °F 78% 30.50 in - Calm Calm - N/A   Unknown
8:52 PM 26.1 °F - 19.9 °F 78% 30.50 in - Calm Calm - N/A   Unknown
9:52 PM 27.0 °F - 21.0 °F 78% 30.48 in - Calm Calm - N/A   Unknown
10:52 PM 27.0 °F - 21.0 °F 78% 30.46 in - Calm Calm - N/A   Unknown
11:52 PM 24.1 °F - 19.9 °F 84% 30.46 in - Calm Calm - N/A   Unknown